Weather History for KFFT - April, 2014

Change the Weather History Date:

Tuesday, April 15, 2014

  Actual Average Record
Temperature  
Mean Temperature 37 °F 55 °F  
Max Temperature 42 °F 67 °F 87 °F (1936)
Min Temperature 32 °F 43 °F 25 °F (1907)
Degree Days  
Heating Degree Days 28 11  
Month to date heating degree days 142 192  
Since 1 July heating degree days 5006 4456  
Cooling Degree Days 0 1  
Month to date cooling degree days 8 7  
Year to date cooling degree days 8 9  
Moisture  
Dew Point 30 °F    
Average Humidity 72    
Maximum Humidity 100    
Minimum Humidity 44    
Precipitation  
Precipitation 0.17 in 0.11 in 1.18 in (1969)
Month to date precipitation 3.06 1.68  
Year to date precipitation 11.48 12.61  
Sea Level Pressure  
Sea Level Pressure 29.97 in    
Wind  
Wind Speed 9 mph (NW)    
Max Wind Speed 21 mph    
Max Gust Speed 27 mph    
Visibility 7 miles    
Events Rain , Snow    
T = Trace of Precipitation, MM = Missing Value Source: NWS Daily Summary

Daily Weather History Graph

Daily Weather History Graph

Search for Another Location

Airport or City:

Trip Planner

Search our weather history database for the weather conditions in past years. The results will help you decide how hot, cold, wet, or windy it might be!

Date:

Astronomy

Apr. 15, 2014 Rise Set
Actual Time 7:04 AM EDT 8:15 PM EDT
Civil Twilight 6:36 AM EDT 8:43 PM EDT
Nautical Twilight 6:04 AM EDT 9:15 PM EDT
Astronomical Twilight 5:30 AM EDT 9:49 PM EDT
Moon 8:55 PM EDT (4/15) 7:11 AM EDT (4/15)
Length of Visible Light 14h 06m
Length of Day
13h 11m
Full, 100% of the Moon is Illuminated
Apr 15
Full
Apr 22
Last Quarter
Apr 29
New
May 6
First Quarter
May 14
Full

Hourly Weather History & Observations

Time (EDT) Temp. Windchill Dew Point Humidity Pressure Visibility Wind Dir Wind Speed Gust Speed Precip Events Conditions
12:10 AM 45.0 °F 39.3 °F 42.1 °F 90% 29.78 in 10.0 mi NNW 11.5 mph 25.3 mph 0.01 in   Overcast
12:27 AM 44.1 °F 36.5 °F 42.1 °F 93% 29.78 in 8.0 mi NW 17.3 mph 23.0 mph 0.01 in   Overcast
12:53 AM 43.0 °F 36.4 °F 41.0 °F 93% 29.80 in 10.0 mi NW 12.7 mph 23.0 mph 0.01 in   Overcast
1:05 AM 42.1 °F 34.5 °F 39.0 °F 89% 29.81 in 10.0 mi NW 15.0 mph 24.2 mph N/A   Overcast
1:14 AM 41.0 °F 33.9 °F 37.9 °F 89% 29.81 in 10.0 mi NW 12.7 mph 23.0 mph N/A   Overcast
1:48 AM 39.2 °F 32.0 °F 37.4 °F 93% 29.83 in 4.0 mi NW 11.5 mph 18.4 mph 0.00 in Rain Light Rain
1:53 AM 39.0 °F 31.8 °F 37.9 °F 96% 29.83 in 4.0 mi NW 11.5 mph - 0.00 in Rain Light Rain
2:20 AM 37.0 °F 27.7 °F 35.1 °F 93% 29.84 in 9.0 mi NNW 16.1 mph 24.2 mph 0.01 in   Overcast
2:38 AM 37.0 °F 31.0 °F 36.0 °F 96% 29.83 in 4.0 mi NW 8.1 mph - 0.02 in Rain Light Rain
2:53 AM 37.0 °F 30.4 °F 35.1 °F 93% 29.85 in 4.0 mi WNW 9.2 mph 18.4 mph 0.04 in Rain Light Rain
3:00 AM 37.0 °F 28.9 °F 35.1 °F 93% 29.85 in 6.0 mi WNW 12.7 mph - 0.00 in Rain Light Rain
3:53 AM 34.0 °F 25.0 °F 32.0 °F 92% 29.86 in 5.0 mi NNW 12.7 mph 18.4 mph 0.04 in Snow Light Snow
4:00 AM 34.0 °F 25.0 °F 32.0 °F 92% 29.86 in 6.0 mi NW 12.7 mph 21.9 mph 0.00 in   Overcast
4:07 AM 33.1 °F 24.4 °F 32.0 °F 96% 29.87 in 5.0 mi NNW 11.5 mph 25.3 mph 0.01 in Snow Light Snow
4:15 AM 33.1 °F 24.4 °F 32.0 °F 96% 29.87 in 3.0 mi NNW 11.5 mph 18.4 mph 0.01 in Snow Light Snow
4:22 AM 33.1 °F 26.1 °F 32.0 °F 96% 29.88 in 2.5 mi NW 8.1 mph - 0.01 in Snow Light Snow
4:28 AM 33.1 °F 26.1 °F 32.0 °F 96% 29.88 in 1.8 mi NW 8.1 mph - 0.02 in Snow Light Snow
4:53 AM 32.0 °F 23.6 °F 32.0 °F 100% 29.88 in 1.2 mi NW 10.4 mph - 0.04 in Snow Light Snow
5:09 AM 32.0 °F 23.6 °F 32.0 °F 100% 29.88 in 0.8 mi NW 10.4 mph - 0.02 in Snow Light Snow
5:18 AM 32.0 °F 22.5 °F 30.9 °F 96% 29.88 in 1.0 mi NNW 12.7 mph 20.7 mph 0.02 in Snow Light Snow
5:30 AM 32.0 °F 25.6 °F 30.9 °F 96% 29.89 in 1.2 mi NW 6.9 mph 20.7 mph 0.03 in Snow Light Snow
5:41 AM 32.0 °F 23.6 °F 32.0 °F 100% 29.87 in 1.2 mi NNW 10.4 mph - 0.04 in Snow Light Snow
5:53 AM 32.0 °F 25.6 °F 30.9 °F 96% 29.90 in 1.8 mi NW 6.9 mph - 0.04 in Snow Light Snow
5:55 AM 32.0 °F 24.2 °F 30.9 °F 96% 29.90 in 2.0 mi WNW 9.2 mph - 0.00 in Snow Light Snow
6:20 AM 32.0 °F 26.4 °F 30.9 °F 96% 29.90 in 2.5 mi NW 5.8 mph - 0.01 in Snow Light Snow
6:32 AM 32.0 °F 25.6 °F 30.9 °F 96% 29.92 in 4.0 mi NW 6.9 mph - 0.01 in Snow Light Snow
6:50 AM 32.0 °F 24.8 °F 30.2 °F 93% 29.93 in 8.0 mi NW 8.1 mph - 0.01 in   Overcast
6:53 AM 33.1 °F 26.9 °F 30.9 °F 92% 29.94 in 9.0 mi West 6.9 mph - 0.01 in   Overcast
7:46 AM 33.1 °F 24.9 °F 30.0 °F 89% 29.97 in 10.0 mi WNW 10.4 mph - N/A   Overcast
7:53 AM 33.1 °F 26.1 °F 30.0 °F 89% 29.99 in 10.0 mi NW 8.1 mph - N/A   Overcast
8:53 AM 33.1 °F 24.9 °F 30.0 °F 89% 29.99 in 10.0 mi NNW 10.4 mph - N/A   Mostly Cloudy
9:11 AM 34.0 °F 28.0 °F 30.0 °F 85% 30.00 in 10.0 mi NNW 6.9 mph - N/A   Mostly Cloudy
9:41 AM 34.0 °F 25.5 °F 30.0 °F 85% 30.00 in 10.0 mi NNW 11.5 mph - N/A   Overcast
9:53 AM 34.0 °F 25.5 °F 28.9 °F 82% 30.01 in 10.0 mi NNW 11.5 mph 20.7 mph N/A   Overcast
10:46 AM 35.1 °F 26.9 °F 30.0 °F 82% 30.02 in 10.0 mi NNW 11.5 mph - N/A   Overcast
10:53 AM 35.1 °F 26.9 °F 30.0 °F 82% 30.03 in 10.0 mi NW 11.5 mph - N/A   Overcast
11:53 AM 36.0 °F 30.3 °F 30.9 °F 82% 30.06 in 10.0 mi NW 6.9 mph - N/A   Overcast
12:53 PM 39.9 °F 33.9 °F 30.0 °F 68% 30.07 in 9.0 mi NNW 9.2 mph - 0.00 in   Mostly Cloudy
1:53 PM 39.0 °F 32.3 °F 30.9 °F 73% 30.09 in 10.0 mi NNW 10.4 mph - 0.00 in   Overcast
2:02 PM 37.0 °F 29.3 °F 28.0 °F 70% 30.08 in 10.0 mi North 11.5 mph 17.3 mph N/A   Overcast
2:09 PM 37.0 °F 31.6 °F 28.0 °F 70% 30.08 in 9.0 mi NW 6.9 mph - 0.00 in Snow Light Snow
2:53 PM 39.0 °F 31.4 °F 24.1 °F 55% 30.11 in 10.0 mi NW 12.7 mph 20.7 mph 0.00 in   Overcast
3:53 PM 39.0 °F 31.8 °F 25.0 °F 57% 30.12 in 10.0 mi NW 11.5 mph - N/A   Overcast
4:53 PM 39.9 °F 32.5 °F 21.9 °F 49% 30.12 in 10.0 mi NW 12.7 mph 18.4 mph N/A   Overcast
5:53 PM 39.0 °F 32.8 °F 21.9 °F 50% 30.15 in 10.0 mi NNW 9.2 mph 18.4 mph N/A   Mostly Cloudy
6:53 PM 39.9 °F 32.9 °F 21.9 °F 49% 30.18 in 10.0 mi North 11.5 mph - N/A   Overcast
7:53 PM 39.0 °F 32.8 °F 19.0 °F 45% 30.19 in 10.0 mi NNW 9.2 mph - N/A   Partly Cloudy
8:53 PM 36.0 °F 33.3 °F 19.0 °F 50% 30.21 in 10.0 mi North 3.5 mph - N/A   Clear
9:53 PM 35.1 °F 30.1 °F 19.0 °F 52% 30.23 in 10.0 mi North 5.8 mph - N/A   Clear
10:53 PM 33.1 °F 30.0 °F 19.9 °F 59% 30.25 in 10.0 mi NNE 3.5 mph - N/A   Clear
11:53 PM 32.0 °F 28.7 °F 19.9 °F 61% 30.25 in 10.0 mi NNE 3.5 mph - N/A   Clear